sat.trackr.live / text

‹ back to catalog

ONEWEB-0238

NORAD 48784 · 2021-045T

PAYLOAD ACTIVE UNKNOWN

§ Identity

Operator
Country
UK
Launch date
2021-05-28
Launch site
VOSTO
Launch vehicle
Mass (kg)
RCS (m²)

Purposes: comms

External: N2YO · Heavens-Above · Gunter

§ Orbital elements

Epoch: 2026-09-09T23:10:30.992736Z

Period
109.46 min
Inclination
87.8983°
Eccentricity
0.0001589
Mean motion
13.15547778 rev/d
Perigee alt
1,200.6 km
Apogee alt
1,203.0 km
Semi-major
7,579.9 km
B*
4.1607e-4
RAAN
242.2777°
Arg perigee
89.8067°
Mean anomaly
270.3246°
Rev number
25,552

§ Raw data

ONEWEB-02381 48784U 21045T   26252.96563649  .00000169  00000+0  41607-3 0  99942 48784  87.8983 242.2777 0001589  89.8067 270.3246 13.15547778255529

JSON: /api/v1/satellites/48784 · /tle

For live sub-satellite position, see the globe view (requires WebGL).

§ Visibility from observer

Set your observer location to see the next 7 days of passes ≥ 10°. The values pass through the URL so the page stays shareable.

No JS? Fill the form by hand. The geolocation button needs JavaScript.